VCV351 SVVA-SVMG

Flight info

Callsign VCV351
Flight time 0h 45m
Altitude 33000
Route ESBES1 ATAMU DCT EDPAL UW14 MASPU DCT CBC UW52 TOSIP DCT ISAPO
Aircraft E190/M-SDE3GILORVW/S

Departure

Time 2026-04-28 22:02
Airport Arturo Michelena International Airport (SVVA)

Arrival

Time 2026-04-28 22:47
Airport Del Caribe Santiago Mariño International Airport (SVMG)
Time Latitude Longitude Altitude Speed Heading
2026-04-28 21:41 10.15315 -67.92267 1411 ft 0 kts 93°
2026-04-28 21:55 10.15315 -67.92266 1411 ft 1 kts 93°
2026-04-28 21:55 10.15310 -67.92254 1411 ft 3 kts 120°
2026-04-28 21:56 10.15287 -67.92246 1411 ft 4 kts 180°
2026-04-28 21:56 10.15249 -67.92255 1412 ft 7 kts 193°
2026-04-28 21:56 10.15197 -67.92266 1414 ft 9 kts 188°
2026-04-28 21:56 10.15130 -67.92279 1415 ft 10 kts 218°
2026-04-28 21:57 10.15115 -67.92352 1415 ft 11 kts 265°
2026-04-28 21:57 10.15094 -67.92433 1415 ft 13 kts 246°
2026-04-28 21:57 10.15064 -67.92522 1414 ft 14 kts 260°
2026-04-28 21:57 10.15062 -67.92628 1413 ft 16 kts 272°
2026-04-28 21:58 10.15067 -67.92741 1414 ft 17 kts 273°
2026-04-28 21:58 10.15073 -67.92858 1421 ft 17 kts 272°
2026-04-28 21:58 10.15078 -67.92975 1417 ft 17 kts 273°
2026-04-28 21:58 10.15084 -67.93095 1420 ft 17 kts 272°
2026-04-28 21:59 10.15091 -67.93220 1417 ft 18 kts 272°
2026-04-28 21:59 10.15097 -67.93346 1419 ft 18 kts 272°
2026-04-28 21:59 10.15103 -67.93472 1420 ft 18 kts 273°
2026-04-28 22:00 10.15115 -67.93736 1421 ft 19 kts 272°
2026-04-28 22:00 10.15120 -67.93863 1422 ft 17 kts 272°
2026-04-28 22:00 10.15124 -67.93975 1423 ft 14 kts 271°
2026-04-28 22:00 10.15118 -67.94070 1424 ft 14 kts 267°
2026-04-28 22:01 10.15113 -67.94159 1424 ft 12 kts 265°
2026-04-28 22:01 10.15070 -67.94202 1423 ft 10 kts 183°
2026-04-28 22:01 10.15040 -67.94191 1423 ft 3 kts 115°
2026-04-28 22:01 10.15040 -67.94184 1423 ft 2 kts 92°
2026-04-28 22:02 10.15034 -67.94002 1423 ft 58 kts 94°
2026-04-28 22:02 10.15003 -67.93350 1420 ft 125 kts 92°
2026-04-28 22:02 10.14969 -67.92283 1515 ft 172 kts 91°
2026-04-28 22:02 10.14949 -67.90976 2026 ft 198 kts 89°
2026-04-28 22:03 10.14926 -67.89504 2721 ft 220 kts 93°
2026-04-28 22:03 10.14794 -67.87976 3732 ft 224 kts 100°
2026-04-28 22:03 10.14214 -67.86523 4656 ft 231 kts 123°
2026-04-28 22:03 10.13048 -67.85434 5542 ft 235 kts 147°
2026-04-28 22:04 10.11499 -67.84840 6452 ft 244 kts 168°
2026-04-28 22:04 10.09756 -67.84852 7223 ft 265 kts 183°
2026-04-28 22:04 10.07863 -67.85170 7947 ft 283 kts 188°
2026-04-28 22:04 10.05909 -67.85564 8996 ft 290 kts 188°
2026-04-28 22:05 10.03910 -67.85937 10123 ft 294 kts 183°
2026-04-28 22:05 10.01822 -67.85733 10705 ft 313 kts 157°
2026-04-28 22:05 10.00011 -67.84460 11393 ft 327 kts 131°
2026-04-28 22:05 9.98881 -67.82426 12185 ft 339 kts 106°
2026-04-28 22:06 9.98583 -67.80039 13173 ft 346 kts 92°
2026-04-28 22:06 9.98598 -67.77578 14143 ft 352 kts 90°
2026-04-28 22:06 9.98659 -67.75072 15071 ft 358 kts 89°
2026-04-28 22:06 9.98724 -67.72560 15970 ft 363 kts 92°
2026-04-28 22:07 9.98604 -67.69980 16856 ft 370 kts 94°
2026-04-28 22:07 9.98469 -67.67358 17708 ft 375 kts 94°
2026-04-28 22:07 9.98336 -67.64690 18439 ft 382 kts 94°
2026-04-28 22:07 9.98204 -67.61983 19119 ft 387 kts 94°
2026-04-28 22:08 9.98070 -67.59241 19778 ft 391 kts 94°
2026-04-28 22:08 9.97935 -67.56472 20437 ft 395 kts 94°
2026-04-28 22:08 9.97799 -67.53665 21071 ft 400 kts 94°
2026-04-28 22:08 9.97661 -67.50829 21700 ft 405 kts 94°
2026-04-28 22:09 9.97522 -67.47962 22314 ft 409 kts 94°
2026-04-28 22:09 9.97384 -67.45072 22942 ft 412 kts 94°
2026-04-28 22:09 9.97244 -67.42157 23505 ft 417 kts 94°
2026-04-28 22:09 9.97100 -67.39206 23969 ft 421 kts 94°
2026-04-28 22:10 9.96957 -67.36227 24419 ft 425 kts 94°
2026-04-28 22:10 9.96808 -67.33220 24850 ft 429 kts 94°
2026-04-28 22:10 9.96660 -67.30187 25281 ft 432 kts 95°
2026-04-28 22:10 9.96512 -67.27132 25713 ft 435 kts 94°
2026-04-28 22:11 9.96361 -67.24052 26122 ft 439 kts 94°
2026-04-28 22:11 9.96208 -67.20952 26533 ft 442 kts 95°
2026-04-28 22:11 9.96056 -67.17826 26931 ft 445 kts 94°
2026-04-28 22:11 9.96267 -67.14682 27312 ft 451 kts 80°
2026-04-28 22:12 9.97303 -67.11704 27693 ft 457 kts 64°
2026-04-28 22:12 9.98842 -67.08869 28086 ft 461 kts 62°
2026-04-28 22:12 10.00445 -67.06032 28463 ft 463 kts 62°
2026-04-28 22:12 10.02046 -67.03183 28830 ft 466 kts 62°
2026-04-28 22:13 10.03652 -67.00323 29273 ft 466 kts 62°
2026-04-28 22:13 10.05249 -66.97464 29776 ft 465 kts 62°
2026-04-28 22:13 10.06842 -66.94617 30186 ft 464 kts 62°
2026-04-28 22:13 10.08445 -66.91773 30531 ft 465 kts 61°
2026-04-28 22:14 10.10068 -66.88933 30865 ft 465 kts 61°
2026-04-28 22:14 10.11689 -66.86088 31187 ft 466 kts 61°
2026-04-28 22:14 10.13310 -66.83244 31505 ft 467 kts 60°
2026-04-28 22:14 10.14933 -66.80388 31815 ft 467 kts 60°
2026-04-28 22:15 10.16559 -66.77528 32126 ft 468 kts 60°
2026-04-28 22:15 10.18183 -66.74666 32413 ft 469 kts 60°
2026-04-28 22:15 10.19814 -66.71791 32725 ft 469 kts 60°
2026-04-28 22:15 10.21438 -66.68930 33023 ft 463 kts 60°
2026-04-28 22:16 10.23017 -66.66134 32940 ft 449 kts 60°
2026-04-28 22:16 10.24543 -66.63424 32952 ft 436 kts 60°
2026-04-28 22:16 10.26021 -66.60802 32960 ft 429 kts 60°
2026-04-28 22:17 10.28980 -66.55548 32943 ft 428 kts 60°
2026-04-28 22:17 10.31934 -66.50299 32941 ft 428 kts 60°
2026-04-28 22:18 10.34891 -66.45047 32934 ft 428 kts 60°
2026-04-28 22:18 10.37847 -66.39794 32959 ft 429 kts 60°
2026-04-28 22:19 10.40808 -66.34527 32966 ft 429 kts 60°
2026-04-28 22:19 10.43760 -66.29274 32967 ft 427 kts 60°
2026-04-28 22:20 10.46704 -66.24034 32955 ft 427 kts 60°
2026-04-28 22:20 10.49647 -66.18792 32925 ft 426 kts 60°
2026-04-28 22:21 10.52563 -66.13597 32924 ft 425 kts 60°
2026-04-28 22:21 10.55493 -66.08376 32919 ft 425 kts 60°
2026-04-28 22:21 10.56727 -66.05654 32938 ft 424 kts 72°
2026-04-28 22:22 10.57314 -66.02730 32938 ft 423 kts 89°
2026-04-28 22:22 10.57315 -65.96755 32907 ft 422 kts 92°
2026-04-28 22:23 10.57254 -65.90792 32914 ft 421 kts 92°
2026-04-28 22:23 10.57202 -65.84835 32920 ft 421 kts 91°
2026-04-28 22:24 10.57153 -65.78921 32916 ft 421 kts 91°
2026-04-28 22:24 10.57104 -65.72962 32915 ft 421 kts 91°
2026-04-28 22:25 10.57056 -65.67007 32919 ft 422 kts 91°
2026-04-28 22:25 10.57005 -65.61018 32587 ft 427 kts 92°
2026-04-28 22:25 10.56968 -65.58015 32367 ft 423 kts 92°
2026-04-28 22:26 10.56936 -65.55045 31806 ft 427 kts 92°
2026-04-28 22:26 10.56894 -65.52020 31239 ft 426 kts 92°
2026-04-28 22:26 10.56855 -65.49016 30646 ft 424 kts 92°
2026-04-28 22:26 10.56816 -65.46023 30084 ft 421 kts 92°
2026-04-28 22:27 10.56781 -65.43065 29489 ft 416 kts 93°
2026-04-28 22:27 10.56748 -65.40143 28974 ft 411 kts 93°
2026-04-28 22:27 10.56715 -65.37235 28424 ft 410 kts 93°
2026-04-28 22:27 10.56683 -65.34341 27880 ft 409 kts 92°
2026-04-28 22:28 10.56652 -65.31463 27351 ft 406 kts 92°
2026-04-28 22:28 10.56620 -65.28610 26807 ft 402 kts 93°
2026-04-28 22:28 10.56589 -65.25783 26275 ft 398 kts 92°
2026-04-28 22:28 10.56561 -65.23015 25759 ft 394 kts 92°
2026-04-28 22:29 10.56532 -65.20241 25240 ft 390 kts 92°
2026-04-28 22:29 10.56503 -65.17497 24723 ft 386 kts 92°
2026-04-28 22:29 10.56475 -65.14780 24214 ft 382 kts 92°
2026-04-28 22:29 10.56448 -65.12091 23707 ft 378 kts 92°
2026-04-28 22:30 10.56422 -65.09420 23168 ft 374 kts 92°
2026-04-28 22:30 10.56397 -65.06830 22728 ft 368 kts 92°
2026-04-28 22:30 10.56374 -65.04245 22231 ft 364 kts 92°
2026-04-28 22:30 10.56350 -65.01681 21750 ft 361 kts 92°
2026-04-28 22:31 10.56326 -64.99130 21275 ft 359 kts 92°
2026-04-28 22:31 10.56303 -64.96594 20797 ft 357 kts 91°
2026-04-28 22:31 10.56281 -64.94073 20320 ft 355 kts 91°
2026-04-28 22:31 10.56260 -64.91570 19853 ft 352 kts 91°
2026-04-28 22:32 10.56238 -64.89093 19389 ft 349 kts 91°
2026-04-28 22:32 10.56217 -64.86632 18924 ft 346 kts 91°
2026-04-28 22:32 10.56197 -64.84192 18467 ft 344 kts 90°
2026-04-28 22:32 10.56177 -64.81788 17994 ft 341 kts 90°
2026-04-28 22:33 10.56159 -64.79390 17555 ft 336 kts 90°
2026-04-28 22:33 10.56141 -64.77024 17119 ft 334 kts 90°
2026-04-28 22:33 10.56123 -64.74669 16678 ft 332 kts 90°
2026-04-28 22:33 10.56105 -64.72330 16239 ft 330 kts 90°
2026-04-28 22:34 10.56088 -64.70005 15799 ft 328 kts 90°
2026-04-28 22:34 10.56070 -64.67691 15369 ft 326 kts 90°
2026-04-28 22:34 10.56054 -64.65393 14939 ft 323 kts 90°
2026-04-28 22:34 10.56055 -64.63115 14510 ft 320 kts 86°
2026-04-28 22:35 10.56585 -64.60966 14105 ft 317 kts 68°
2026-04-28 22:35 10.57514 -64.58944 13676 ft 312 kts 66°
2026-04-28 22:35 10.58433 -64.56953 13239 ft 307 kts 66°
2026-04-28 22:35 10.59027 -64.55663 12986 ft 302 kts 66°
2026-04-28 22:36 10.59908 -64.53741 12582 ft 297 kts 66°
2026-04-28 22:36 10.61052 -64.51247 12073 ft 291 kts 66°
2026-04-28 22:36 10.61902 -64.49388 11686 ft 288 kts 66°
2026-04-28 22:36 10.62471 -64.48146 11434 ft 286 kts 66°
2026-04-28 22:37 10.63293 -64.46344 11058 ft 284 kts 66°
2026-04-28 22:37 10.64122 -64.44528 10686 ft 282 kts 66°
2026-04-28 22:37 10.64947 -64.42718 10315 ft 281 kts 66°
2026-04-28 22:37 10.65766 -64.40918 9943 ft 279 kts 66°
2026-04-28 22:38 10.66580 -64.39130 9550 ft 278 kts 66°
2026-04-28 22:38 10.67387 -64.37355 9202 ft 276 kts 66°
2026-04-28 22:38 10.68191 -64.35584 8833 ft 276 kts 66°
2026-04-28 22:38 10.68996 -64.33810 8475 ft 276 kts 66°
2026-04-28 22:39 10.69801 -64.32032 8110 ft 277 kts 66°
2026-04-28 22:39 10.70596 -64.30279 7743 ft 276 kts 66°
2026-04-28 22:39 10.71397 -64.28509 7378 ft 275 kts 66°
2026-04-28 22:39 10.72197 -64.26743 7011 ft 274 kts 67°
2026-04-28 22:40 10.72992 -64.24982 6658 ft 274 kts 67°
2026-04-28 22:40 10.73792 -64.23216 6269 ft 274 kts 66°
2026-04-28 22:40 10.74791 -64.21559 5893 ft 274 kts 57°
2026-04-28 22:40 10.75844 -64.19966 5546 ft 270 kts 59°
2026-04-28 22:41 10.76869 -64.18372 5193 ft 268 kts 58°
2026-04-28 22:41 10.77872 -64.16808 4809 ft 257 kts 59°
2026-04-28 22:41 10.78918 -64.15413 4433 ft 243 kts 42°
2026-04-28 22:41 10.80411 -64.14701 4124 ft 234 kts 15°
2026-04-28 22:42 10.82022 -64.14760 3861 ft 232 kts 348°
2026-04-28 22:42 10.83479 -64.15476 3642 ft 236 kts 332°
2026-04-28 22:42 10.84970 -64.16043 3366 ft 228 kts 360°
2026-04-28 22:42 10.86430 -64.15654 2979 ft 215 kts 36°
2026-04-28 22:43 10.87383 -64.14572 2795 ft 198 kts 59°
2026-04-28 22:43 10.87874 -64.13342 2702 ft 182 kts 80°
2026-04-28 22:43 10.88086 -64.12114 2676 ft 172 kts 78°
2026-04-28 22:43 10.88368 -64.10937 2602 ft 171 kts 76°
2026-04-28 22:44 10.88624 -64.09753 2431 ft 171 kts 78°
2026-04-28 22:44 10.88850 -64.08575 2205 ft 168 kts 78°
2026-04-28 22:44 10.89087 -64.07419 1986 ft 167 kts 77°
2026-04-28 22:44 10.89322 -64.06273 1788 ft 166 kts 79°
2026-04-28 22:45 10.89549 -64.05138 1552 ft 156 kts 79°
2026-04-28 22:45 10.89747 -64.04157 1343 ft 130 kts 76°
2026-04-28 22:45 10.89924 -64.03293 1164 ft 122 kts 74°
2026-04-28 22:45 10.90096 -64.02450 1003 ft 121 kts 77°
2026-04-28 22:46 10.90270 -64.01581 884 ft 128 kts 76°
2026-04-28 22:46 10.90438 -64.00733 691 ft 118 kts 76°
2026-04-28 22:46 10.90608 -63.99903 498 ft 119 kts 76°
2026-04-28 22:46 10.90771 -63.99104 348 ft 117 kts 78°
2026-04-28 22:47 10.90937 -63.98262 162 ft 123 kts 77°
2026-04-28 22:47 10.91100 -63.97464 69 ft 102 kts 78°
2026-04-28 22:47 10.91219 -63.96917 59 ft 56 kts 79°
2026-04-28 22:47 10.91278 -63.96602 57 ft 37 kts 79°
2026-04-28 22:48 10.91324 -63.96465 54 ft 11 kts 17°
2026-04-28 22:48 10.91398 -63.96474 57 ft 10 kts 348°
2026-04-28 22:48 10.91463 -63.96488 58 ft 10 kts 347°
2026-04-28 22:48 10.91536 -63.96506 58 ft 11 kts 344°
2026-04-28 22:49 10.91611 -63.96541 56 ft 12 kts 302°
2026-04-28 22:49 10.91580 -63.96616 54 ft 13 kts 237°
2026-04-28 22:49 10.91544 -63.96700 59 ft 14 kts 258°
2026-04-28 22:49 10.91525 -63.96794 59 ft 11 kts 256°
2026-04-28 22:50 10.91559 -63.96825 59 ft 4 kts 347°
2026-04-28 22:50 10.91579 -63.96829 59 ft 2 kts 348°
2026-04-28 22:50 10.91589 -63.96831 59 ft 0 kts 348°